FW7771 Weather Reports


time (UTC)temp
F
wind
direction
speed
knots
gust
knots
rain 1hr
in
rain 24hr
in
rain mn
in
humidity
%
barometer
mb
20260507071609 31 0 0.0 0.0 0.00 0.00 0.00 73 1013.8
20260507070100 32 0 0.0 0.0 0.00 0.00 0.00 72 1013.8
20260507064613 32 0 0.0 0.0 0.00 0.00 0.00 71 1014.2
20260507063058 33 0 0.0 0.0 0.00 0.00 0.00 71 1014.2
20260507061600 33 0 0.0 0.0 0.00 0.00 0.00 71 1014.4
20260507060100 33 0 0.0 0.9 0.00 0.00 0.00 71 1014.4
20260507054608 34 0 0.0 1.7 0.00 0.00 0.00 68 1014.6
20260507053059 35 0 0.0 0.0 0.00 0.00 0.00 68 1014.6
20260507051600 35 0 0.0 0.0 0.00 0.00 0.00 68 1014.6
20260507044558 34 0 0.0 0.0 0.00 0.00 0.00 67 1014.6
20260507043103 33 0 0.0 0.0 0.00 0.00 0.00 69 1014.7
20260507041608 33 0 0.0 0.0 0.00 0.00 0.00 69 1014.7
20260507040100 34 0 0.0 0.0 0.00 0.00 0.00 67 1014.8
20260507034607 35 0 0.0 0.0 0.00 0.00 0.00 68 1014.9
20260507033058 35 0 0.0 0.0 0.00 0.00 0.00 66 1015.1
20260507031600 35 0 0.0 0.9 0.00 0.00 0.00 64 1015.1
20260507024604 37 0 0.0 0.0 0.00 0.00 0.00 63 1014.9
20260507023113 38 0 0.0 0.0 0.00 0.00 0.00 62 1014.7
20260507021558 39 0 0.0 2.6 0.00 0.00 0.00 60 1014.7
20260507020059 41 0 0.0 2.6 0.00 0.00 0.00 56 1014.9
20260507014608 42 0 0.0 0.9 0.00 0.00 0.00 56 1014.8
20260507013114 43 0 0.0 2.6 0.00 0.00 0.00 53 1014.7
20260507011558 45 296 1.7 4.3 0.00 0.00 0.00 52 1014.6
20260507010100 45 302 4.3 8.7 0.00 0.00 0.00 49 1014.7
20260507004557 46 292 7.8 10.4 0.00 0.00 0.00 48 1014.9
20260507003056 46 281 7.8 13.9 0.00 0.00 0.00 47 1015.0
20260507001620 46 277 7.8 12.2 0.00 0.00 0.00 47 1015.0
20260506234558 47 266 7.0 9.6 0.00 0.00 0.00 46 1015.1
20260506233107 47 288 10.4 15.6 0.00 0.00 0.00 47 1015.3
20260506231600 47 271 7.0 14.8 0.00 0.00 0.00 47 1015.4
20260506230059 47 299 12.2 18.2 0.00 0.00 0.00 46 1015.5
20260506224557 47 265 13.0 18.2 0.00 0.00 0.00 46 1015.5
20260506223123 48 261 13.0 18.2 0.00 0.00 0.00 45 1015.6
20260506221603 48 294 13.0 18.2 0.00 0.00 0.00 45 1015.6
20260506220059 47 245 10.4 17.4 0.00 0.00 0.00 46 1015.8
20260506214609 46 240 14.8 20.0 0.00 0.00 0.00 46 1016.0
20260506213059 47 238 13.0 20.9 0.00 0.00 0.00 46 1016.1
20260506211558 47 272 13.0 22.6 0.00 0.00 0.00 47 1016.2
20260506210125 47 256 13.0 17.4 0.00 0.00 0.00 46 1016.2
20260506204558 46 265 13.0 19.1 0.00 0.00 0.00 47 1016.4
20260506203104 46 254 12.2 19.1 0.00 0.00 0.00 47 1016.6
20260506201558 46 256 14.8 20.0 0.00 0.00 0.00 46 1016.7
20260506200150 46 261 10.4 18.2 0.00 0.00 0.00 48 1016.6
20260506194612 46 252 11.3 18.2 0.00 0.00 0.00 48 1016.6
20260506193058 46 261 10.4 20.9 0.00 0.00 0.00 49 1016.7
20260506191600 46 265 13.0 19.1 0.00 0.00 0.00 47 1016.7
20260506190100 46 246 9.6 19.1 0.00 0.00 0.00 48 1016.8
20260506184600 45 289 9.6 20.0 0.00 0.00 0.00 50 1016.9
20260506183059 44 241 14.8 20.9 0.00 0.00 0.00 50 1017.0
20260506181600 43 248 10.4 17.4 0.00 0.00 0.00 52 1017.1
20260506180108 43 247 13.0 18.2 0.00 0.00 0.00 52 1017.2
20260506174559 42 254 13.0 17.4 0.00 0.00 0.00 52 1017.2
20260506173124 42 255 10.4 18.2 0.00 0.00 0.00 55 1017.3
20260506171603 41 254 13.0 18.2 0.00 0.00 0.00 55 1017.5
20260506170059 41 257 13.0 17.4 0.00 0.00 0.00 56 1017.5
20260506164600 41 271 11.3 14.8 0.00 0.00 0.00 57 1017.5
20260506163106 40 289 11.3 15.6 0.00 0.00 0.00 58 1017.6
20260506161559 40 274 11.3 16.5 0.00 0.00 0.00 59 1017.6
20260506160108 40 250 9.6 13.0 0.00 0.00 0.00 61 1017.6
20260506154600 39 247 7.8 12.2 0.00 0.00 0.00 62 1017.6
20260506153057 39 271 5.2 7.8 0.00 0.00 0.00 61 1017.5
20260506151559 39 252 4.3 7.8 0.00 0.00 0.00 61 1017.6
20260506150105 38 290 5.2 8.7 0.00 0.00 0.00 61 1017.6
20260506144600 38 301 5.2 7.0 0.00 0.00 0.00 61 1017.6
20260506143104 38 295 5.2 7.8 0.00 0.00 0.00 62 1017.5
20260506141608 38 296 5.2 7.8 0.00 0.00 0.00 62 1017.6
20260506134620 37 290 2.6 7.0 0.00 0.00 0.00 63 1017.4
20260506133101 37 309 2.6 6.1 0.00 0.00 0.00 65 1017.4
20260506131612 37 256 2.6 6.1 0.00 0.00 0.00 69 1017.3
20260506130100 37 261 2.6 5.2 0.00 0.00 0.00 72 1017.3
20260506124609 36 301 3.5 6.1 0.00 0.00 0.00 72 1017.0
20260506123059 36 283 2.6 5.2 0.00 0.00 0.00 72 1016.8
20260506121608 35 286 1.7 3.5 0.00 0.00 0.00 73 1016.6
20260506114558 35 289 2.6 4.3 0.00 0.00 0.00 74 1016.0
20260506113059 34 292 1.7 4.3 0.00 0.00 0.00 74 1015.8
20260506111618 34 298 2.6 4.3 0.00 0.00 0.00 74 1015.6
20260506110058 34 303 3.5 4.3 0.00 0.00 0.00 74 1015.4
20260506104605 33 300 3.5 6.1 0.00 0.00 0.00 74 1015.4
20260506103107 32 253 1.7 4.3 0.00 0.00 0.00 75 1015.4
20260506101558 31 252 2.6 4.3 0.00 0.00 0.00 75 1015.8
20260506100105 31 255 2.6 5.2 0.00 0.00 0.00 77 1015.8
20260506094559 27 0 0.0 0.9 0.00 0.00 0.00 79 1015.5
20260506093100 27 301 0.9 1.7 0.00 0.00 0.00 78 1015.3
20260506091559 27 0 0.0 1.7 0.00 0.00 0.00 78 1015.0
20260506090058 27 296 0.0 1.7 0.00 0.00 0.00 78 1015.1
20260506084607 26 0 0.0 1.7 0.00 0.00 0.00 77 1015.3
20260506083116 26 0 0.9 4.3 0.00 0.00 0.00 76 1015.3
20260506081559 27 0 0.0 0.9 0.00 0.00 0.00 77 1014.9
20260506073057 30 0 0.9 2.6 0.00 0.00 0.00 70 1015.1